When you browse on this site, cookies collect data to enhance your experience and personalize the content and advertising you see.
Visit our Privacy Policy to learn more. By continuing to use the site, you agree to this use of cookies and data.
  • In Hungary
  • List of Countries
  • For 7 days
  • Water Temperature
  • Satellite Maps
  • Weather Map
  • News
  • Weather Widgets
  • user-avatar
    Login

    Hourly Weather Orhangazi

    Today, 11 December, Tuesday

    Time Temperature Precipitation Wind Pressure Humidity
    00:00 +8°C° 1.8 mm 6 mps 740 mmHg 91%
    01:00 +8°C° 1.8 mm 7 mps 741 mmHg 92%
    02:00 +6°C° 0 mm 7 mps 740 mmHg 93%
    03:00 +5°C° 2.3 mm 6 mps 741 mmHg 93%
    04:00 +5°C° 2.3 mm 6 mps 742 mmHg 92%
    05:00 +5°C° 2.3 mm 6 mps 743 mmHg 92%
    06:00 +5°C° 1.4 mm 5 mps 744 mmHg 91%
    07:00 +5°C° 1.4 mm 5 mps 745 mmHg 90%
    08:00 +5°C° 0 mm 4 mps 746 mmHg 89%
    09:00 +5°C° 0.4 mm 4 mps 747 mmHg 87%
    10:00 +7°C° 0.4 mm 3 mps 747 mmHg 85%
    11:00 +7°C° 0.4 mm 3 mps 748 mmHg 83%
    12:00 +7°C° 0.1 mm 3 mps 748 mmHg 80%
    13:00 +8°C° 0.1 mm 3 mps 748 mmHg 78%
    14:00 +8°C° 0.1 mm 2 mps 748 mmHg 75%
    15:00 +8°C° 0 mm 2 mps 748 mmHg 78%
    16:00 +8°C° 0 mm 1 mps 748 mmHg 81%
    17:00 +7°C° 0 mm 1 mps 748 mmHg 84%
    18:00 +7°C° 0 mm 1 mps 748 mmHg 85%
    19:00 +7°C° 0 mm 1 mps 748 mmHg 86%
    20:00 +7°C° 0 mm 1 mps 749 mmHg 88%
    21:00 +6°C° 0 mm 1 mps 749 mmHg 89%
    22:00 +6°C° 0 mm 1 mps 749 mmHg 90%
    23:00 +6°C° 0 mm 1 mps 749 mmHg 91%

    Tomorrow, 12 December, Wednesday

    Time Temperature Precipitation Wind Pressure Humidity
    00:00 +5°C° 0.1 mm 2 mps 749 mmHg 91%
    01:00 +5°C° 0.1 mm 2 mps 749 mmHg 91%
    02:00 +5°C° 0.1 mm 2 mps 749 mmHg 91%
    03:00 +5°C° 0.4 mm 2 mps 749 mmHg 91%
    04:00 +5°C° 0.4 mm 2 mps 749 mmHg 92%
    05:00 +4°C° 0.4 mm 3 mps 749 mmHg 92%
    06:00 +4°C° 1.1 mm 3 mps 749 mmHg 92%
    07:00 +4°C° 1.1 mm 3 mps 750 mmHg 92%
    08:00 +4°C° 1.1 mm 3 mps 750 mmHg 92%
    09:00 +4°C° 1.1 mm 3 mps 750 mmHg 91%
    10:00 +4°C° 1.1 mm 3 mps 751 mmHg 90%
    11:00 +4°C° 1.1 mm 3 mps 751 mmHg 89%
    12:00 +4°C° 0.4 mm 3 mps 752 mmHg 87%
    13:00 +4°C° 0.4 mm 3 mps 752 mmHg 84%
    14:00 +4°C° 0.4 mm 3 mps 752 mmHg 82%
    15:00 +3°C° 0.1 mm 3 mps 752 mmHg 82%
    16:00 +3°C° 0.1 mm 3 mps 753 mmHg 82%
    17:00 +3°C° 0.1 mm 2 mps 753 mmHg 82%
    18:00 +3°C° 0 mm 2 mps 754 mmHg 82%
    19:00 +2°C° 0 mm 2 mps 754 mmHg 83%
    20:00 +2°C° 0 mm 2 mps 754 mmHg 83%
    21:00 +2°C° 0 mm 2 mps 755 mmHg 83%
    22:00 +1°C° 0 mm 2 mps 755 mmHg 83%
    23:00 +1°C° 0 mm 2 mps 755 mmHg 82%

    Day after tomorrow, 13 December, Thursday

    Time Temperature Precipitation Wind Pressure Humidity
    00:00 +1°C° 0 mm 2 mps 755 mmHg 82%
    01:00 +1°C° 0 mm 2 mps 756 mmHg 81%
    02:00 +1°C° 0 mm 2 mps 756 mmHg 80%
    03:00 +1°C° 0 mm 2 mps 756 mmHg 80%
    04:00 +1°C° 0 mm 2 mps 756 mmHg 79%
    05:00 -1°C° 0 mm 2 mps 756 mmHg 79%
    06:00 +1°C° 0 mm 2 mps 756 mmHg 78%
    07:00 +1°C° 0 mm 2 mps 756 mmHg 77%
    08:00 +1°C° 0 mm 2 mps 757 mmHg 76%
    09:00 +2°C° 0 mm 2 mps 757 mmHg 72%
    10:00 +4°C° 0 mm 2 mps 756 mmHg 67%
    11:00 +6°C° 0 mm 2 mps 756 mmHg 63%
    12:00 +6°C° 0 mm 2 mps 756 mmHg 60%
    13:00 +7°C° 0 mm 2 mps 755 mmHg 58%
    14:00 +7°C° 0 mm 2 mps 754 mmHg 56%
    15:00 +6°C° 0 mm 2 mps 755 mmHg 59%
    16:00 +6°C° 0 mm 2 mps 755 mmHg 62%
    17:00 +5°C° 0 mm 2 mps 755 mmHg 65%
    18:00 +5°C° 0 mm 2 mps 755 mmHg 66%
    19:00 +5°C° 0 mm 2 mps 755 mmHg 67%
    20:00 +5°C° 0 mm 2 mps 754 mmHg 68%
    21:00 +5°C° 0.1 mm 2 mps 754 mmHg 70%
    22:00 +5°C° 0.1 mm 2 mps 754 mmHg 72%
    23:00 +5°C° 0.1 mm 2 mps 754 mmHg 74%

    14 December, Friday

    Time Temperature Precipitation Wind Pressure Humidity
    00:00 +5°C° 0.3 mm 2 mps 754 mmHg 76%
    01:00 +5°C° 0.3 mm 2 mps 754 mmHg 79%
    02:00 +5°C° 0.3 mm 2 mps 754 mmHg 81%
    03:00 +4°C° 0.2 mm 2 mps 754 mmHg 83%
    04:00 +4°C° 0.2 mm 2 mps 754 mmHg 85%
    05:00 +4°C° 0.2 mm 2 mps 754 mmHg 86%
    06:00 +4°C° 0 mm 2 mps 754 mmHg 87%
    07:00 +4°C° 0 mm 2 mps 754 mmHg 87%
    08:00 +4°C° 0 mm 2 mps 755 mmHg 87%
    09:00 +5°C° 0 mm 2 mps 755 mmHg 86%
    10:00 +6°C° 0 mm 2 mps 755 mmHg 84%
    11:00 +9°C° 0 mm 1 mps 755 mmHg 82%
    12:00 +9°C° 0 mm 1 mps 755 mmHg 81%
    13:00 +9°C° 0 mm 2 mps 755 mmHg 79%
    14:00 +9°C° 0 mm 2 mps 754 mmHg 78%
    15:00 +9°C° 0 mm 2 mps 755 mmHg 81%
    16:00 +8°C° 0 mm 2 mps 755 mmHg 83%
    17:00 +7°C° 0 mm 2 mps 755 mmHg 85%
    18:00 +7°C° 0 mm 2 mps 755 mmHg 86%
    19:00 +7°C° 0 mm 2 mps 755 mmHg 87%
    20:00 +7°C° 0 mm 3 mps 756 mmHg 87%
    21:00 +7°C° 0 mm 2 mps 756 mmHg 87%
    22:00 +7°C° 0 mm 2 mps 755 mmHg 87%
    23:00 +7°C° 0 mm 2 mps 755 mmHg 88%

    15 December, Saturday

    Time Temperature Precipitation Wind Pressure Humidity
    00:00 +7°C° 0 mm 2 mps 755 mmHg 88%
    01:00 +7°C° 0 mm 2 mps 755 mmHg 88%
    02:00 +7°C° 0 mm 2 mps 755 mmHg 88%
    03:00 +7°C° 0 mm 2 mps 755 mmHg 88%
    04:00 +7°C° 0 mm 2 mps 754 mmHg 88%
    05:00 +7°C° 0 mm 2 mps 754 mmHg 88%
    06:00 +7°C° 0 mm 3 mps 754 mmHg 87%
    07:00 +7°C° 0 mm 3 mps 754 mmHg 87%
    08:00 +7°C° 0 mm 3 mps 754 mmHg 86%
    09:00 +9°C° 0 mm 3 mps 754 mmHg 83%
    10:00 +10°C° 0 mm 3 mps 754 mmHg 80%
    11:00 +11°C° 0 mm 3 mps 754 mmHg 77%
    12:00 +12°C° 0 mm 3 mps 753 mmHg 76%
    13:00 +12°C° 0 mm 3 mps 753 mmHg 75%
    14:00 +14°C° 0 mm 2 mps 753 mmHg 75%
    15:00 +12°C° 0 mm 3 mps 753 mmHg 77%
    16:00 +11°C° 0 mm 3 mps 753 mmHg 80%
    17:00 +10°C° 0 mm 3 mps 753 mmHg 83%
    18:00 +10°C° 0 mm 3 mps 753 mmHg 83%
    19:00 +10°C° 0 mm 3 mps 753 mmHg 83%
    20:00 +9°C° 0 mm 3 mps 753 mmHg 83%
    21:00 +9°C° 0 mm 3 mps 753 mmHg 83%
    22:00 +9°C° 0 mm 3 mps 753 mmHg 83%
    23:00 +9°C° 0 mm 3 mps 753 mmHg 82%

    16 December, Sunday

    Time Temperature Precipitation Wind Pressure Humidity
    00:00 +9°C° 0 mm 3 mps 752 mmHg 83%
    01:00 +9°C° 0 mm 3 mps 752 mmHg 83%
    02:00 +9°C° 0 mm 3 mps 752 mmHg 83%
    03:00 +9°C° 0.1 mm 3 mps 752 mmHg 83%
    04:00 +9°C° 0.1 mm 3 mps 752 mmHg 84%
    05:00 +9°C° 0.1 mm 3 mps 752 mmHg 84%
    06:00 +9°C° 0.1 mm 3 mps 752 mmHg 84%
    07:00 +9°C° 0.1 mm 3 mps 752 mmHg 84%
    08:00 +9°C° 0.1 mm 3 mps 752 mmHg 85%
    09:00 +10°C° 0.1 mm 3 mps 752 mmHg 83%
    10:00 +11°C° 0.1 mm 3 mps 753 mmHg 81%
    11:00 +12°C° 0.1 mm 3 mps 753 mmHg 79%
    12:00 +13°C° 0.1 mm 2 mps 752 mmHg 78%
    13:00 +14°C° 0.1 mm 2 mps 752 mmHg 76%
    14:00 +14°C° 0.1 mm 1 mps 752 mmHg 75%
    15:00 +13°C° 0.1 mm 1 mps 752 mmHg 78%
    16:00 +12°C° 0.1 mm 1 mps 752 mmHg 80%
    17:00 +12°C° 0.1 mm 1 mps 752 mmHg 83%
    18:00 +10°C° 0 mm 2 mps 753 mmHg 84%
    19:00 +10°C° 0 mm 2 mps 753 mmHg 84%
    20:00 +10°C° 0 mm 2 mps 753 mmHg 84%
    21:00 +9°C° 0 mm 2 mps 753 mmHg 84%
    22:00 +9°C° 0 mm 2 mps 753 mmHg 84%
    23:00 +9°C° 0 mm 2 mps 754 mmHg 84%
    Show more